Location: Fontevrault
(47.1823°N, 0.0493°E)
Time: 04:11:14
(UTC+00:00)

Uosat 12 SS-18 rocket - Pass Details

Date: 28 October 2021
Orbit: 579 x 1405 km, 64.6° (Epoch: 01 December)

Event Time Altitude Azimuth Distance (km) Brightness Sun altitude
Rises 22:39:22 0° 321° (NW) 3,887 8.7 -53.7°
Reaches altitude 10° 22:41:51 10° 323° (NW) 3,035 8.0 -53.9°
Enters shadow 22:42:12 12° 323° (NW) 2,920 7.9 -53.9°
